Location: Unspecified
(0.0000°N, 0.0000°E)
Time: 08:04:58
(UTC+00:00)

Tiangong - Pass Details

Date: 27 July 2021
Orbit: 373 x 386 km, 41.5° (Epoch: 01 August)

Event Time Altitude Azimuth Distance (km) Brightness Sun altitude
Rises 18:49:12 0° 286° (WNW) 2,225 7.3 -10.1°
Reaches altitude 10° 18:51:50 10° 262° (W) 1,374 4.9 -10.7°
Maximum altitude 18:53:46 15° 223° (SW) 1,101 3.7 -11.1°
Drops below altitude 10° 18:55:42 10° 184° (S) 1,373 3.7 -11.6°
Enters shadow 18:57:03 - 169° (S) 1,772 4.1 -11.9°
